星链-35382(STARLINK-35382)

导读 | 豆包AI

STARLINK-35382是美国于2025年10月16日发射的星链卫星,隶属于SpaceX公司星链星座项目。星链项目旨在搭建全球卫星互联网,为偏远地区及地面通信覆盖不足区域提供宽带服务。该卫星延续星链星座设计,将参与低轨通信组网,助力全球互联网络覆盖进一步拓展。

基本信息
目录编号:
66019
目录名称:
STARLINK-35382
国际标识:
2025-232Q
轨道中心:
EARTH
卫星名称:
星链-35382
卫星全名:
星链-35382(STARLINK-35382)
卫星状态:
在轨 (已飞行170 天)
发射日期:
2025-10-16 UTC
国别 :
美国 (US)
星等 :
--
轨道信息
数据来源 国际轨道数据
星历时间: 2026-04-03T18:40:18+0800
21小时前
查看轨道信息
半长轴: 6853.323km
偏心率: 0.0001263
轨道倾角: 53.162°
近地点辐角 87.854°
升交点赤经 349.066°
平近点角 272.261°
近地点: 474.32km
远地点: 476.052km
周期: 94.105分钟
每日圈数: 15.302098
详细信息
固有亮度:
5
最大亮度:
2.5
卫星平台:
Starlink V1.0
覆盖范围:
全球
运营商:
太空探索技术公司
运营商所在国:
美国
制造商(研发单位):
太空探索技术公司
制造商所在国:
美国
使用方式:
暂无
卫星简介
Starlink 计划是 SpaceX 推出的全球卫星互联网项目,通过发射低轨道卫星,为全球尤其是偏远地区提供高速、低延迟的互联网服务。自 2019 年起,Starlink 已部署数千颗卫星,旨在缩小全球数字鸿沟,推动互联网普及。该项目还为军事、航空等行业提供通信支持,带来广泛经济效益。
2D轨道图
3D轨道图
轨道高度分析图
轨道倾角分析图
轨道综合分析图
查看轨道综合分析图